Terug naar catalogus

STARLINK-34103

ActiefCommunicatieVLEO
NORAD 63962·PAYLOAD·🇺🇸 United States

Gelanceerd May 13, 2025 vanaf Cape Canaveral Space Force Station

Loading…

Volgende Passages (komende 24 uur)

TLE

VersSource: CelesTrak SupGP

Epoch: Sep 14, 2026, 21:25 UTC

1 63962C 25099L   26257.89284722 -.00001309  00000+0 -47407-4 0  2572
2 63962  42.9998 187.6649 0001332 263.6575  67.7576 15.27589135    18

Volg STARLINK-34103 in realtime met AllMySat

Download on the App Store